Location: Unspecified
(0.0000°N, 0.0000°E)
Time: 23:50:59
(UTC+00:00)

Tiros 1 despin weight - Visible Passes

Search period start: 19 February 2018 00:00
Search period end: 01 March 2018 00:00
Orbit: 595 x 643 km, 48.2° (Epoch: 19 February)

Date Brightness Start Highest point End Pass type
(mag) Time Alt. Az. Time Alt. Az. Time Alt. Az.
19 Feb ? 04:44:06 63° WSW 04:44:21 64° SW 04:48:52 10° SSE visible
20 Feb ? 05:01:02 23° SW 05:01:10 23° SW 05:04:47 10° S visible
21 Feb ? 03:40:45 12° SE 03:40:45 12° SE 03:41:03 10° SE visible
22 Feb ? 03:57:32 10° SSE 03:57:32 10° SSE 03:57:34 10° SSE visible
